| time (UTC) | temp F | wind direction | speed MPH | gust MPH | rain 1hr in | rain 24hr in | rain mn in | humidity % | barometer mb |
| 20260506102009 | 55 | 59 | 1.0 | 3.0 | 0.00 | 0.00 | 0.00 | 88 | 1007.1 |
| 20260506101532 | 55 | 0 | 1.0 | 4.0 | 0.00 | 0.00 | 0.00 | 88 | 1007.1 |
| 20260506101013 | 55 | 59 | 2.0 | 4.0 | 0.00 | 0.00 | 0.00 | 88 | 1006.9 |
| 20260506100511 | 55 | 0 | 0.0 | 0.0 | 0.00 | 0.00 | 0.00 | 87 | 1007.0 |
| 20260506100039 | 56 | 0 | 0.0 | 0.0 | 0.00 | 0.00 | 0.00 | 86 | 1006.9 |
| 20260506095511 | 56 | 0 | 0.0 | 0.0 | 0.00 | 0.00 | 0.00 | 84 | 1007.0 |
| 20260506095010 | 56 | 0 | 0.0 | 0.0 | 0.00 | 0.00 | 0.00 | 82 | 1007.0 |
| 20260506094533 | 57 | 0 | 0.0 | 0.0 | 0.00 | 0.00 | 0.00 | 82 | 1007.1 |
| 20260506094016 | 57 | 0 | 0.0 | 0.0 | 0.00 | 0.00 | 0.00 | 81 | 1007.0 |
| 20260506093513 | 56 | 0 | 0.0 | 0.0 | 0.00 | 0.00 | 0.00 | 81 | 1006.9 |
| 20260506093028 | 56 | 0 | 0.0 | 2.0 | 0.00 | 0.00 | 0.00 | 82 | 1006.9 |
| 20260506092512 | 56 | 0 | 0.0 | 2.0 | 0.00 | 0.00 | 0.00 | 82 | 1006.9 |
| 20260506092013 | 56 | 0 | 0.0 | 2.0 | 0.00 | 0.00 | 0.00 | 83 | 1006.9 |
| 20260506091529 | 56 | 65 | 0.0 | 2.0 | 0.00 | 0.00 | 0.00 | 82 | 1006.9 |
| 20260506091011 | 56 | 0 | 0.0 | 0.0 | 0.00 | 0.00 | 0.00 | 82 | 1007.1 |
| 20260506090513 | 56 | 0 | 0.0 | 0.0 | 0.00 | 0.00 | 0.00 | 84 | 1007.0 |
| 20260506090040 | 57 | 0 | 0.0 | 0.0 | 0.00 | 0.00 | 0.00 | 83 | 1007.1 |
| 20260506085513 | 57 | 0 | 0.0 | 0.0 | 0.00 | 0.00 | 0.00 | 83 | 1007.0 |
| 20260506085012 | 57 | 0 | 0.0 | 0.0 | 0.00 | 0.00 | 0.00 | 84 | 1007.2 |
| 20260506084528 | 57 | 0 | 0.0 | 2.0 | 0.00 | 0.00 | 0.00 | 84 | 1007.3 |
| 20260506084017 | 56 | 0 | 0.0 | 2.0 | 0.00 | 0.00 | 0.00 | 89 | 1007.2 |
| 20260506083513 | 55 | 0 | 0.0 | 2.0 | 0.00 | 0.00 | 0.00 | 92 | 1007.4 |
| 20260506083037 | 55 | 0 | 0.0 | 0.0 | 0.00 | 0.00 | 0.00 | 94 | 1007.4 |
| 20260506082511 | 55 | 0 | 0.0 | 0.0 | 0.00 | 0.00 | 0.00 | 95 | 1007.2 |
| 20260506082013 | 54 | 0 | 0.0 | 0.0 | 0.00 | 0.00 | 0.00 | 95 | 1007.1 |
| 20260506081526 | 54 | 0 | 0.0 | 0.0 | 0.00 | 0.00 | 0.00 | 96 | 1007.2 |
| 20260506081010 | 54 | 0 | 0.0 | 0.0 | 0.00 | 0.00 | 0.00 | 96 | 1007.1 |
| 20260506080513 | 54 | 0 | 0.0 | 0.0 | 0.00 | 0.00 | 0.00 | 96 | 1007.1 |
| 20260506073517 | 55 | 42 | 0.0 | 1.0 | 0.00 | 0.00 | 0.00 | 96 | 1007.1 |
| 20260506073030 | 55 | 0 | 0.0 | 1.0 | 0.00 | 0.00 | 0.00 | 96 | 1007.3 |
| 20260506072517 | 55 | 0 | 0.0 | 0.0 | 0.00 | 0.00 | 0.00 | 96 | 1007.3 |
| 20260506072011 | 55 | 0 | 0.0 | 0.0 | 0.00 | 0.00 | 0.00 | 96 | 1007.4 |
| 20260506071529 | 55 | 0 | 0.0 | 0.0 | 0.00 | 0.00 | 0.00 | 96 | 1007.4 |
| 20260506071011 | 55 | 0 | 0.0 | 0.0 | 0.00 | 0.00 | 0.00 | 96 | 1007.5 |
| 20260506070512 | 55 | 0 | 0.0 | 0.0 | 0.00 | 0.00 | 0.00 | 96 | 1007.5 |
| 20260506062515 | 55 | 0 | 0.0 | 0.0 | 0.00 | 0.00 | 0.00 | 95 | 1007.8 |
| 20260506062011 | 54 | 0 | 0.0 | 0.0 | 0.00 | 0.00 | 0.00 | 95 | 1007.8 |
| 20260506061530 | 54 | 0 | 0.0 | 0.0 | 0.00 | 0.00 | 0.00 | 95 | 1007.9 |
| 20260506061016 | 54 | 0 | 0.0 | 0.0 | 0.00 | 0.00 | 0.00 | 94 | 1008.0 |
| 20260506060514 | 54 | 0 | 0.0 | 0.0 | 0.00 | 0.00 | 0.00 | 94 | 1008.1 |
| 20260506051012 | 55 | 0 | 0.0 | 4.0 | 0.00 | 0.00 | 0.00 | 90 | 1008.7 |
| 20260506050510 | 56 | 32 | 2.0 | 4.0 | 0.00 | 0.00 | 0.00 | 90 | 1008.5 |
| 20260506045012 | 58 | 55 | 2.0 | 4.0 | 0.00 | 0.00 | 0.00 | 89 | 1008.5 |
| 20260506044532 | 58 | 55 | 1.0 | 4.0 | 0.00 | 0.00 | 0.00 | 89 | 1008.6 |
| 20260506044008 | 58 | 57 | 2.0 | 5.0 | 0.00 | 0.00 | 0.00 | 88 | 1008.7 |
| 20260506043513 | 58 | 26 | 2.0 | 5.0 | 0.00 | 0.00 | 0.00 | 88 | 1008.6 |
| 20260506043028 | 58 | 34 | 3.0 | 6.0 | 0.00 | 0.00 | 0.00 | 88 | 1008.5 |
| 20260506042515 | 58 | 30 | 4.0 | 6.0 | 0.00 | 0.00 | 0.00 | 87 | 1008.6 |
| 20260506042011 | 58 | 38 | 3.0 | 7.0 | 0.00 | 0.00 | 0.00 | 87 | 1008.7 |
| 20260506041528 | 57 | 42 | 3.0 | 7.0 | 0.00 | 0.00 | 0.00 | 87 | 1008.8 |
| 20260506041011 | 57 | 327 | 1.0 | 4.0 | 0.00 | 0.00 | 0.00 | 88 | 1008.8 |
| 20260506040511 | 57 | 327 | 2.0 | 5.0 | 0.00 | 0.00 | 0.00 | 87 | 1008.8 |
| 20260506040042 | 56 | 0 | 1.0 | 5.0 | 0.00 | 0.00 | 0.00 | 87 | 1008.8 |
| 20260506035511 | 55 | 321 | 3.0 | 5.0 | 0.00 | 0.00 | 0.00 | 86 | 1008.8 |
| 20260506035012 | 55 | 321 | 3.0 | 5.0 | 0.00 | 0.00 | 0.00 | 85 | 1008.8 |
| 20260506034530 | 55 | 321 | 3.0 | 5.0 | 0.00 | 0.00 | 0.00 | 85 | 1008.7 |
| 20260506034013 | 55 | 321 | 0.0 | 4.0 | 0.00 | 0.00 | 0.00 | 85 | 1008.7 |
| 20260506033512 | 56 | 0 | 0.0 | 0.0 | 0.00 | 0.00 | 0.00 | 84 | 1008.6 |
| 20260506033029 | 56 | 0 | 0.0 | 0.0 | 0.00 | 0.00 | 0.00 | 85 | 1008.6 |
| 20260506032514 | 56 | 0 | 0.0 | 1.0 | 0.00 | 0.00 | 0.00 | 85 | 1008.6 |
| 20260506032011 | 56 | 0 | 0.0 | 2.0 | 0.00 | 0.00 | 0.00 | 86 | 1008.7 |
| 20260506031528 | 56 | 0 | 0.0 | 2.0 | 0.00 | 0.00 | 0.00 | 86 | 1008.6 |
| 20260506031013 | 56 | 321 | 0.0 | 2.0 | 0.00 | 0.00 | 0.00 | 85 | 1008.5 |
| 20260506030515 | 56 | 0 | 0.0 | 3.0 | 0.00 | 0.00 | 0.00 | 85 | 1008.6 |
| 20260506030030 | 57 | 0 | 1.0 | 3.0 | 0.00 | 0.00 | 0.00 | 84 | 1008.6 |
| 20260506025512 | 57 | 321 | 1.0 | 3.0 | 0.00 | 0.00 | 0.00 | 84 | 1008.5 |
| 20260506025013 | 57 | 321 | 1.0 | 3.0 | 0.00 | 0.00 | 0.00 | 83 | 1008.6 |
| 20260506024536 | 58 | 0 | 0.0 | 0.0 | 0.00 | 0.00 | 0.00 | 83 | 1008.5 |
| 20260506024012 | 58 | 0 | 0.0 | 0.0 | 0.00 | 0.00 | 0.00 | 83 | 1008.5 |
| 20260506023511 | 58 | 0 | 0.0 | 0.0 | 0.00 | 0.00 | 0.00 | 82 | 1008.5 |
| 20260506023030 | 59 | 0 | 0.0 | 0.0 | 0.00 | 0.00 | 0.00 | 82 | 1008.5 |
| 20260506022512 | 59 | 0 | 0.0 | 0.0 | 0.00 | 0.00 | 0.00 | 82 | 1008.5 |
| 20260506022011 | 59 | 0 | 0.0 | 0.0 | 0.00 | 0.00 | 0.00 | 82 | 1008.5 |
| 20260506021542 | 59 | 0 | 0.0 | 0.0 | 0.00 | 0.00 | 0.00 | 81 | 1008.5 |
| 20260506021011 | 59 | 0 | 0.0 | 0.0 | 0.00 | 0.00 | 0.00 | 81 | 1008.5 |
| 20260506020513 | 59 | 0 | 0.0 | 0.0 | 0.00 | 0.00 | 0.00 | 81 | 1008.5 |
| 20260506020028 | 60 | 0 | 0.0 | 0.0 | 0.00 | 0.00 | 0.00 | 80 | 1008.5 |
| 20260506015512 | 60 | 0 | 0.0 | 0.0 | 0.00 | 0.00 | 0.00 | 80 | 1008.5 |
| 20260506015015 | 60 | 0 | 0.0 | 0.0 | 0.00 | 0.00 | 0.00 | 80 | 1008.5 |
| 20260506014530 | 60 | 0 | 0.0 | 0.0 | 0.00 | 0.00 | 0.00 | 80 | 1008.5 |
| 20260506014008 | 61 | 0 | 0.0 | 0.0 | 0.00 | 0.00 | 0.00 | 80 | 1008.5 |
| 20260506013512 | 60 | 0 | 0.0 | 0.0 | 0.00 | 0.00 | 0.00 | 81 | 1008.4 |
| 20260506013030 | 61 | 0 | 0.0 | 0.0 | 0.00 | 0.00 | 0.00 | 80 | 1008.4 |
| 20260506012510 | 61 | 0 | 0.0 | 0.0 | 0.00 | 0.00 | 0.00 | 79 | 1008.4 |
| 20260506012009 | 61 | 0 | 0.0 | 0.0 | 0.00 | 0.00 | 0.00 | 80 | 1008.3 |
| 20260506011529 | 60 | 0 | 0.0 | 2.0 | 0.00 | 0.00 | 0.00 | 80 | 1008.3 |
| 20260506011011 | 61 | 0 | 0.0 | 2.0 | 0.00 | 0.00 | 0.00 | 79 | 1008.2 |
| 20260506010510 | 61 | 321 | 1.0 | 2.0 | 0.00 | 0.00 | 0.00 | 77 | 1008.0 |
| 20260506010039 | 62 | 321 | 0.0 | 2.0 | 0.00 | 0.00 | 0.00 | 77 | 1008.1 |
| 20260506005511 | 61 | 0 | 0.0 | 2.0 | 0.00 | 0.00 | 0.00 | 77 | 1008.0 |
| 20260506005013 | 62 | 0 | 0.0 | 2.0 | 0.00 | 0.00 | 0.00 | 76 | 1008.0 |
| 20260506004528 | 63 | 321 | 0.0 | 2.0 | 0.00 | 0.00 | 0.00 | 75 | 1008.0 |
| 20260506004012 | 63 | 0 | 0.0 | 0.0 | 0.00 | 0.00 | 0.00 | 74 | 1007.9 |
| 20260506003511 | 63 | 0 | 0.0 | 0.0 | 0.00 | 0.00 | 0.00 | 74 | 1007.9 |
| 20260506003028 | 64 | 0 | 0.0 | 0.0 | 0.00 | 0.00 | 0.00 | 75 | 1007.9 |
| 20260506002515 | 64 | 0 | 0.0 | 0.0 | 0.00 | 0.00 | 0.00 | 72 | 1007.9 |
| 20260506002011 | 64 | 0 | 0.0 | 2.0 | 0.00 | 0.00 | 0.00 | 73 | 1007.9 |
| 20260506001530 | 64 | 0 | 0.0 | 3.0 | 0.00 | 0.00 | 0.00 | 72 | 1007.9 |
| 20260506001011 | 65 | 321 | 0.0 | 3.0 | 0.00 | 0.00 | 0.00 | 71 | 1007.9 |
| 20260506000511 | 65 | 321 | 1.0 | 3.0 | 0.00 | 0.00 | 0.00 | 70 | 1007.8 |
| 20260506000031 | 66 | 321 | 1.0 | 3.0 | 0.00 | 0.00 | 0.00 | 69 | 1007.9 |
| 20260505235510 | 66 | 321 | 1.0 | 3.0 | 0.00 | 0.00 | 0.00 | 68 | 1007.8 |
| 20260505235012 | 67 | 321 | 2.0 | 3.0 | 0.00 | 0.00 | 0.00 | 66 | 1007.6 |
| 20260505234539 | 67 | 321 | 1.0 | 4.0 | 0.00 | 0.00 | 0.00 | 65 | 1007.7 |
| 20260505234010 | 67 | 321 | 2.0 | 4.0 | 0.00 | 0.00 | 0.00 | 65 | 1007.6 |
| 20260505233514 | 68 | 321 | 2.0 | 5.0 | 0.00 | 0.00 | 0.00 | 63 | 1007.6 |
| 20260505233028 | 68 | 321 | 3.0 | 5.0 | 0.00 | 0.00 | 0.00 | 61 | 1007.5 |
| 20260505232511 | 69 | 321 | 3.0 | 8.0 | 0.00 | 0.00 | 0.00 | 59 | 1007.5 |
| 20260505232011 | 70 | 323 | 3.0 | 8.0 | 0.00 | 0.00 | 0.00 | 56 | 1007.4 |
| 20260505231531 | 70 | 318 | 3.0 | 5.0 | 0.00 | 0.00 | 0.00 | 53 | 1007.3 |
| 20260505231012 | 70 | 313 | 2.0 | 5.0 | 0.00 | 0.00 | 0.00 | 53 | 1007.3 |
| 20260505230509 | 70 | 219 | 0.0 | 4.0 | 0.00 | 0.00 | 0.00 | 52 | 1007.2 |
| 20260505230028 | 71 | 0 | 0.0 | 5.0 | 0.00 | 0.00 | 0.00 | 54 | 1007.1 |
| 20260505225511 | 71 | 184 | 1.0 | 5.0 | 0.00 | 0.00 | 0.00 | 49 | 1007.1 |
| 20260505225011 | 71 | 186 | 1.0 | 5.0 | 0.00 | 0.00 | 0.00 | 48 | 1007.0 |
| 20260505224531 | 72 | 0 | 0.0 | 5.0 | 0.00 | 0.00 | 0.00 | 48 | 1007.0 |
| 20260505224011 | 72 | 194 | 1.0 | 7.0 | 0.00 | 0.00 | 0.00 | 48 | 1007.0 |
| 20260505223510 | 72 | 200 | 2.0 | 7.0 | 0.00 | 0.00 | 0.00 | 47 | 1006.9 |
| 20260505223028 | 72 | 192 | 2.0 | 8.0 | 0.00 | 0.00 | 0.00 | 47 | 1006.8 |
| 20260505222511 | 73 | 192 | 4.0 | 12.0 | 0.00 | 0.00 | 0.00 | 46 | 1006.7 |
| 20260505222009 | 73 | 183 | 4.0 | 12.0 | 0.00 | 0.00 | 0.00 | 46 | 1006.7 |
| 20260505221528 | 73 | 201 | 5.0 | 15.0 | 0.00 | 0.00 | 0.00 | 46 | 1006.7 |
| 20260505221009 | 73 | 205 | 6.0 | 17.0 | 0.00 | 0.00 | 0.00 | 45 | 1006.6 |
| 20260505220512 | 73 | 198 | 7.0 | 22.0 | 0.00 | 0.00 | 0.00 | 45 | 1006.7 |
| 20260505220027 | 74 | 196 | 9.0 | 22.0 | 0.00 | 0.00 | 0.00 | 45 | 1006.7 |
| 20260505215510 | 74 | 221 | 9.0 | 21.0 | 0.00 | 0.00 | 0.00 | 44 | 1006.6 |
| 20260505215012 | 74 | 171 | 6.0 | 19.0 | 0.00 | 0.00 | 0.00 | 45 | 1006.6 |
| 20260505214536 | 74 | 211 | 9.0 | 17.0 | 0.00 | 0.00 | 0.00 | 45 | 1006.5 |
| 20260505214015 | 74 | 151 | 8.0 | 17.0 | 0.00 | 0.00 | 0.00 | 44 | 1006.4 |
| 20260505213510 | 74 | 195 | 6.0 | 21.0 | 0.00 | 0.00 | 0.00 | 46 | 1006.4 |
| 20260505213027 | 74 | 211 | 9.0 | 24.0 | 0.00 | 0.00 | 0.00 | 46 | 1006.5 |
| 20260505212515 | 75 | 236 | 11.0 | 24.0 | 0.00 | 0.00 | 0.00 | 44 | 1006.5 |
| 20260505212013 | 75 | 192 | 8.0 | 19.0 | 0.00 | 0.00 | 0.00 | 44 | 1006.4 |
| 20260505211539 | 75 | 172 | 7.0 | 18.0 | 0.00 | 0.00 | 0.00 | 44 | 1006.3 |
| 20260505211013 | 75 | 221 | 8.0 | 19.0 | 0.00 | 0.00 | 0.00 | 44 | 1006.3 |
| 20260505210516 | 75 | 212 | 8.0 | 19.0 | 0.00 | 0.00 | 0.00 | 46 | 1006.4 |
| 20260505210029 | 76 | 228 | 8.0 | 19.0 | 0.00 | 0.00 | 0.00 | 43 | 1006.2 |
| 20260505205514 | 76 | 195 | 8.0 | 18.0 | 0.00 | 0.00 | 0.00 | 43 | 1006.1 |
| 20260505205012 | 77 | 200 | 9.0 | 21.0 | 0.00 | 0.00 | 0.00 | 44 | 1006.0 |
| 20260505204010 | 75 | 298 | 8.0 | 18.0 | 0.00 | 0.00 | 0.00 | 44 | 1005.9 |
| 20260505203511 | 75 | 223 | 7.0 | 19.0 | 0.00 | 0.00 | 0.00 | 44 | 1006.0 |
| 20260505203037 | 74 | 206 | 6.0 | 25.0 | 0.00 | 0.00 | 0.00 | 45 | 1006.0 |
| 20260505202514 | 74 | 223 | 9.0 | 25.0 | 0.00 | 0.00 | 0.00 | 44 | 1006.1 |
| 20260505202012 | 74 | 221 | 12.0 | 25.0 | 0.00 | 0.00 | 0.00 | 43 | 1006.0 |
| 20260505201528 | 74 | 182 | 11.0 | 22.0 | 0.00 | 0.00 | 0.00 | 43 | 1006.1 |
| 20260505201015 | 74 | 153 | 11.0 | 22.0 | 0.00 | 0.00 | 0.00 | 43 | 1006.1 |
| 20260505200512 | 74 | 215 | 8.0 | 17.0 | 0.00 | 0.00 | 0.00 | 44 | 1005.9 |
| 20260505200030 | 74 | 205 | 9.0 | 17.0 | 0.00 | 0.00 | 0.00 | 44 | 1005.9 |
| 20260505195511 | 74 | 204 | 8.0 | 17.0 | 0.00 | 0.00 | 0.00 | 45 | 1005.8 |
| 20260505195013 | 74 | 222 | 9.0 | 21.0 | 0.00 | 0.00 | 0.00 | 45 | 1005.8 |
| 20260505194528 | 75 | 189 | 10.0 | 21.0 | 0.00 | 0.00 | 0.00 | 44 | 1005.8 |
| 20260505194016 | 75 | 182 | 10.0 | 19.0 | 0.00 | 0.00 | 0.00 | 44 | 1005.8 |
| 20260505193513 | 76 | 230 | 10.0 | 19.0 | 0.00 | 0.00 | 0.00 | 43 | 1005.7 |
| 20260505193027 | 76 | 170 | 12.0 | 19.0 | 0.00 | 0.00 | 0.00 | 43 | 1005.8 |
| 20260505192512 | 76 | 178 | 8.0 | 18.0 | 0.00 | 0.00 | 0.00 | 44 | 1005.8 |
| 20260505192013 | 76 | 174 | 10.0 | 27.0 | 0.00 | 0.00 | 0.00 | 43 | 1005.8 |
| 20260505191528 | 76 | 200 | 12.0 | 27.0 | 0.00 | 0.00 | 0.00 | 43 | 1005.9 |
| 20260505191011 | 76 | 202 | 12.0 | 25.0 | 0.00 | 0.00 | 0.00 | 44 | 1006.2 |
| 20260505190512 | 76 | 185 | 10.0 | 23.0 | 0.00 | 0.00 | 0.00 | 45 | 1006.2 |
| 20260505190034 | 76 | 184 | 13.0 | 27.0 | 0.00 | 0.00 | 0.00 | 44 | 1006.5 |
| 20260505185517 | 76 | 214 | 14.0 | 27.0 | 0.00 | 0.00 | 0.00 | 43 | 1006.5 |
| 20260505185012 | 76 | 192 | 13.0 | 26.0 | 0.00 | 0.00 | 0.00 | 43 | 1006.8 |
| 20260505184542 | 76 | 244 | 11.0 | 21.0 | 0.00 | 0.00 | 0.00 | 43 | 1006.5 |
| 20260505184016 | 76 | 229 | 10.0 | 21.0 | 0.00 | 0.00 | 0.00 | 44 | 1006.6 |
| 20260505183513 | 76 | 168 | 11.0 | 20.0 | 0.00 | 0.00 | 0.00 | 42 | 1006.7 |
| 20260505183037 | 76 | 197 | 7.0 | 18.0 | 0.00 | 0.00 | 0.00 | 46 | 1006.7 |
| 20260505182512 | 76 | 230 | 10.0 | 19.0 | 0.00 | 0.00 | 0.00 | 44 | 1006.8 |
| 20260505182014 | 75 | 186 | 11.0 | 23.0 | 0.00 | 0.00 | 0.00 | 43 | 1006.7 |
| 20260505181530 | 76 | 202 | 10.0 | 26.0 | 0.00 | 0.00 | 0.00 | 44 | 1006.9 |
| 20260505181012 | 75 | 184 | 13.0 | 26.0 | 0.00 | 0.00 | 0.00 | 43 | 1007.0 |
| 20260505180516 | 75 | 177 | 11.0 | 26.0 | 0.00 | 0.00 | 0.00 | 46 | 1007.2 |
| 20260505180029 | 76 | 263 | 9.0 | 26.0 | 0.00 | 0.00 | 0.00 | 45 | 1007.2 |
| 20260505175514 | 76 | 215 | 12.0 | 24.0 | 0.00 | 0.00 | 0.00 | 43 | 1007.4 |
| 20260505175013 | 76 | 171 | 10.0 | 19.0 | 0.00 | 0.00 | 0.00 | 45 | 1007.4 |
| 20260505174529 | 75 | 211 | 6.0 | 16.0 | 0.00 | 0.00 | 0.00 | 49 | 1007.2 |
| 20260505174011 | 75 | 209 | 7.0 | 16.0 | 0.00 | 0.00 | 0.00 | 45 | 1007.5 |
| 20260505173512 | 75 | 238 | 9.0 | 21.0 | 0.00 | 0.00 | 0.00 | 45 | 1007.5 |
| 20260505173029 | 74 | 226 | 8.0 | 21.0 | 0.00 | 0.00 | 0.00 | 45 | 1007.4 |
| 20260505172511 | 75 | 219 | 11.0 | 21.0 | 0.00 | 0.00 | 0.00 | 45 | 1007.6 |
| 20260505172013 | 75 | 232 | 13.0 | 21.0 | 0.00 | 0.00 | 0.00 | 45 | 1007.2 |
| 20260505171528 | 75 | 217 | 11.0 | 19.0 | 0.00 | 0.00 | 0.00 | 46 | 1007.2 |
| 20260505171014 | 75 | 221 | 8.0 | 20.0 | 0.00 | 0.00 | 0.00 | 49 | 1007.4 |
| 20260505170512 | 74 | 168 | 11.0 | 20.0 | 0.00 | 0.00 | 0.00 | 48 | 1007.6 |
| 20260505170035 | 74 | 177 | 9.0 | 15.0 | 0.00 | 0.00 | 0.00 | 48 | 1007.4 |
| 20260505165514 | 74 | 262 | 6.0 | 15.0 | 0.00 | 0.00 | 0.00 | 48 | 1007.5 |
| 20260505165013 | 74 | 217 | 8.0 | 15.0 | 0.00 | 0.00 | 0.00 | 49 | 1007.5 |
| 20260505164534 | 73 | 223 | 5.0 | 20.0 | 0.00 | 0.00 | 0.00 | 51 | 1007.7 |
| 20260505164011 | 73 | 216 | 6.0 | 20.0 | 0.00 | 0.00 | 0.00 | 51 | 1007.7 |
| 20260505163513 | 74 | 204 | 10.0 | 19.0 | 0.00 | 0.00 | 0.00 | 51 | 1007.9 |
| 20260505163028 | 74 | 223 | 9.0 | 19.0 | 0.00 | 0.00 | 0.00 | 50 | 1007.9 |
| 20260505162518 | 74 | 182 | 11.0 | 19.0 | 0.00 | 0.00 | 0.00 | 49 | 1008.0 |
| 20260505162012 | 74 | 220 | 8.0 | 23.0 | 0.00 | 0.00 | 0.00 | 51 | 1007.9 |
| 20260505161530 | 74 | 190 | 8.0 | 26.0 | 0.00 | 0.00 | 0.00 | 52 | 1007.9 |
| 20260505161011 | 74 | 188 | 9.0 | 26.0 | 0.00 | 0.00 | 0.00 | 53 | 1008.0 |
| 20260505160516 | 73 | 215 | 6.0 | 21.0 | 0.00 | 0.00 | 0.00 | 54 | 1008.0 |
| 20260505153028 | 72 | 171 | 9.0 | 24.0 | 0.00 | 0.00 | 0.00 | 54 | 1008.6 |
| 20260505152513 | 72 | 199 | 11.0 | 24.0 | 0.00 | 0.00 | 0.00 | 53 | 1008.6 |
| 20260505152011 | 72 | 200 | 7.0 | 22.0 | 0.00 | 0.00 | 0.00 | 56 | 1008.4 |
| 20260505151535 | 71 | 193 | 13.0 | 22.0 | 0.00 | 0.00 | 0.00 | 55 | 1008.5 |
| 20260505151010 | 71 | 197 | 12.0 | 20.0 | 0.00 | 0.00 | 0.00 | 55 | 1008.6 |
| 20260505150513 | 71 | 202 | 9.0 | 18.0 | 0.00 | 0.00 | 0.00 | 57 | 1008.6 |
| 20260505140512 | 67 | 226 | 6.0 | 12.0 | 0.00 | 0.00 | 0.00 | 59 | 1008.7 |
| 20260505125013 | 64 | 186 | 7.0 | 14.0 | 0.00 | 0.00 | 0.00 | 64 | 1009.3 |
| 20260505124528 | 64 | 175 | 6.0 | 14.0 | 0.00 | 0.00 | 0.00 | 65 | 1009.2 |
| 20260505124014 | 64 | 232 | 6.0 | 13.0 | 0.00 | 0.00 | 0.00 | 65 | 1009.2 |
| 20260505123512 | 63 | 188 | 7.0 | 13.0 | 0.00 | 0.00 | 0.00 | 65 | 1009.4 |
| 20260505123030 | 63 | 190 | 8.0 | 13.0 | 0.00 | 0.00 | 0.00 | 65 | 1009.3 |
| 20260505122513 | 63 | 221 | 7.0 | 13.0 | 0.00 | 0.00 | 0.00 | 66 | 1009.1 |
| 20260505122015 | 63 | 188 | 5.0 | 13.0 | 0.00 | 0.00 | 0.00 | 66 | 1009.1 |
| 20260505121536 | 63 | 169 | 6.0 | 14.0 | 0.00 | 0.00 | 0.00 | 66 | 1009.0 |
| 20260505121010 | 63 | 234 | 7.0 | 14.0 | 0.00 | 0.00 | 0.00 | 67 | 1009.0 |
| 20260505120510 | 62 | 182 | 5.0 | 13.0 | 0.00 | 0.00 | 0.00 | 67 | 1009.0 |
| 20260505120029 | 62 | 178 | 7.0 | 13.0 | 0.00 | 0.00 | 0.00 | 68 | 1009.0 |
| 20260505115511 | 62 | 163 | 5.0 | 11.0 | 0.00 | 0.00 | 0.00 | 68 | 1009.1 |
| 20260505115011 | 61 | 180 | 5.0 | 11.0 | 0.00 | 0.00 | 0.00 | 68 | 1009.2 |
| 20260505114528 | 61 | 159 | 3.0 | 10.0 | 0.00 | 0.00 | 0.00 | 69 | 1009.1 |
| 20260505114012 | 61 | 208 | 4.0 | 10.0 | 0.00 | 0.00 | 0.00 | 69 | 1009.3 |
| 20260505113511 | 60 | 169 | 3.0 | 10.0 | 0.00 | 0.00 | 0.00 | 70 | 1009.2 |
| 20260505113039 | 60 | 205 | 3.0 | 7.0 | 0.00 | 0.00 | 0.00 | 71 | 1008.9 |
| 20260505112513 | 59 | 185 | 1.0 | 5.0 | 0.00 | 0.00 | 0.00 | 71 | 1008.9 |
| 20260505112011 | 59 | 169 | 2.0 | 5.0 | 0.00 | 0.00 | 0.00 | 71 | 1008.9 |
| 20260505111540 | 58 | 159 | 1.0 | 5.0 | 0.00 | 0.00 | 0.00 | 72 | 1008.9 |
| 20260505111017 | 58 | 149 | 2.0 | 9.0 | 0.00 | 0.00 | 0.00 | 72 | 1008.8 |
| 20260505110511 | 58 | 135 | 4.0 | 9.0 | 0.00 | 0.00 | 0.00 | 72 | 1008.8 |